owner,sensor,date,latitude,longitude,vertical_datum,sea_water_practical_salinity,qcFlag 
DISL,ioos:station:DISL:CATA:1,2009-04-01T00:00:00Z,30.3085,-88.1395,2.639,2.17,1111122 
DISL,ioos:station:DISL:CATA:1,2009-04-01T00:30:00Z,30.3085,-88.1395,2.608,2.24,1111122 
DISL,ioos:station:DISL:CATA:1,2009-04-01T01:00:00Z,30.3085,-88.1395,2.54,2.44,1111122 
DISL,ioos:station:DISL:CATA:1,2009-04-01T01:30:00Z,30.3085,-88.1395,2.483,2.62,1111122 
DISL,ioos:station:DISL:CATA:1,2009-04-01T02:00:00Z,30.3085,-88.1395,2.442,2.4,1111122 
DISL,ioos:station:DISL:CATA:1,2009-04-01T02:30:00Z,30.3085,-88.1395,2.404,2.17,1111122 
DISL,ioos:station:DISL:CATA:1,2009-04-01T03:00:00Z,30.3085,-88.1395,2.383,1.94,1111122 
DISL,ioos:station:DISL:CATA:1,2009-04-01T03:30:00Z,30.3085,-88.1395,2.356,1.84,1111122 
DISL,ioos:station:DISL:CATA:1,2009-04-01T04:00:00Z,30.3085,-88.1395,2.316,1.85,1111122 
DISL,ioos:station:DISL:CATA:1,2009-04-01T04:30:00Z,30.3085,-88.1395,2.32,1.93,1111122 
DISL,ioos:station:DISL:CATA:1,2009-04-01T05:00:00Z,30.3085,-88.1395,2.302,2.02,1111122 
DISL,ioos:station:DISL:CATA:1,2009-04-01T05:30:00Z,30.3085,-88.1395,2.272,2.09,1111122 
DISL,ioos:station:DISL:CATA:1,2009-04-01T06:00:00Z,30.3085,-88.1395,2.267,2.2,1111122 
DISL,ioos:station:DISL:CATA:1,2009-04-01T06:30:00Z,30.3085,-88.1395,2.248,2.25,1111122 
DISL,ioos:station:DISL:CATA:1,2009-04-01T07:00:00Z,30.3085,-88.1395,2.234,2.32,1111122 
DISL,ioos:station:DISL:CATA:1,2009-04-01T07:30:00Z,30.3085,-88.1395,2.208,2.41,1111122 
DISL,ioos:station:DISL:CATA:1,2009-04-01T08:00:00Z,30.3085,-88.1395,2.215,2.5,1111122 
DISL,ioos:station:DISL:CATA:1,2009-04-01T08:30:00Z,30.3085,-88.1395,2.211,2.56,1111122 
DISL,ioos:station:DISL:CATA:1,2009-04-01T09:00:00Z,30.3085,-88.1395,2.212,2.56,1111122 
DISL,ioos:station:DISL:CATA:1,2009-04-01T09:30:00Z,30.3085,-88.1395,2.229,2.53,1111122 
DISL,ioos:station:DISL:CATA:1,2009-04-01T10:00:00Z,30.3085,-88.1395,2.273,2.47,1111122 
DISL,ioos:station:DISL:CATA:1,2009-04-01T10:30:00Z,30.3085,-88.1395,2.288,2.44,1111122 
DISL,ioos:station:DISL:CATA:1,2009-04-01T11:00:00Z,30.3085,-88.1395,2.334,2.41,1111122 
DISL,ioos:station:DISL:CATA:1,2009-04-01T11:30:00Z,30.3085,-88.1395,2.36,2.45,1111122 
DISL,ioos:station:DISL:CATA:1,2009-04-01T12:00:00Z,30.3085,-88.1395,2.377,2.42,1111122 
DISL,ioos:station:DISL:CATA:1,2009-04-01T12:30:00Z,30.3085,-88.1395,2.348,2.38,1111122 
DISL,ioos:station:DISL:CATA:1,2009-04-01T13:00:00Z,30.3085,-88.1395,2.355,2.34,1111122 
DISL,ioos:station:DISL:CATA:1,2009-04-01T13:30:00Z,30.3085,-88.1395,2.363,2.28,1111122 
DISL,ioos:station:DISL:CATA:1,2009-04-01T14:00:00Z,30.3085,-88.1395,2.36,2.27,1111122 
DISL,ioos:station:DISL:CATA:1,2009-04-01T14:30:00Z,30.3085,-88.1395,2.347,2.25,1111122 
DISL,ioos:station:DISL:CATA:1,2009-04-01T15:00:00Z,30.3085,-88.1395,2.364,2.2,1111122 
DISL,ioos:station:DISL:CATA:1,2009-04-01T15:30:00Z,30.3085,-88.1395,2.386,2.16,1111122 
DISL,ioos:station:DISL:CATA:1,2009-04-01T16:00:00Z,30.3085,-88.1395,2.432,2.13,1111122 
DISL,ioos:station:DISL:CATA:1,2009-04-01T16:30:00Z,30.3085,-88.1395,2.521,2.1,1111122 
DISL,ioos:station:DISL:CATA:1,2009-04-01T17:00:00Z,30.3085,-88.1395,2.588,2.13,1111122 
DISL,ioos:station:DISL:CATA:1,2009-04-01T17:30:00Z,30.3085,-88.1395,2.625,2.15,1111122 
DISL,ioos:station:DISL:CATA:1,2009-04-01T18:00:00Z,30.3085,-88.1395,2.671,2.22,1111122 
DISL,ioos:station:DISL:CATA:1,2009-04-01T18:30:00Z,30.3085,-88.1395,2.698,2.12,1111122 
DISL,ioos:station:DISL:CATA:1,2009-04-01T19:00:00Z,30.3085,-88.1395,2.749,1.99,1111122 
DISL,ioos:station:DISL:CATA:1,2009-04-01T19:30:00Z,30.3085,-88.1395,2.769,2.04,1111122 
DISL,ioos:station:DISL:CATA:1,2009-04-01T20:00:00Z,30.3085,-88.1395,2.782,2.16,1111122 
DISL,ioos:station:DISL:CATA:1,2009-04-01T20:30:00Z,30.3085,-88.1395,2.808,2.49,1111122 
DISL,ioos:station:DISL:CATA:1,2009-04-01T21:00:00Z,30.3085,-88.1395,2.813,2.62,1111122 
DISL,ioos:station:DISL:CATA:1,2009-04-01T21:30:00Z,30.3085,-88.1395,2.819,2.71,1111122 
DISL,ioos:station:DISL:CATA:1,2009-04-01T22:00:00Z,30.3085,-88.1395,2.806,4.07,1111122 
DISL,ioos:station:DISL:CATA:1,2009-04-01T22:30:00Z,30.3085,-88.1395,2.835,5.48,1111122 
DISL,ioos:station:DISL:CATA:1,2009-04-01T23:00:00Z,30.3085,-88.1395,2.829,5.73,1111122 
DISL,ioos:station:DISL:CATA:1,2009-04-01T23:30:00Z,30.3085,-88.1395,2.776,5.39,1111122 
DISL,ioos:station:DISL:CATA:1,2009-04-02T00:00:00Z,30.3085,-88.1395,2.732,2.5,1111122 
DISL,ioos:station:DISL:CATA:1,2009-04-02T00:30:00Z,30.3085,-88.1395,2.711,2.16,1111122 
DISL,ioos:station:DISL:CATA:1,2009-04-02T01:00:00Z,30.3085,-88.1395,2.677,2.37,1111122 
DISL,ioos:station:DISL:CATA:1,2009-04-02T01:30:00Z,30.3085,-88.1395,2.625,2.37,1111122 
DISL,ioos:station:DISL:CATA:1,2009-04-02T02:00:00Z,30.3085,-88.1395,2.574,2.39,1111122 
DISL,ioos:station:DISL:CATA:1,2009-04-02T02:30:00Z,30.3085,-88.1395,2.527,2.38,1111122 
DISL,ioos:station:DISL:CATA:1,2009-04-02T03:00:00Z,30.3085,-88.1395,2.494,2.31,1111122 
DISL,ioos:station:DISL:CATA:1,2009-04-02T03:30:00Z,30.3085,-88.1395,2.437,2.26,1111122 
DISL,ioos:station:DISL:CATA:1,2009-04-02T04:00:00Z,30.3085,-88.1395,2.395,2.15,1111122 
DISL,ioos:station:DISL:CATA:1,2009-04-02T04:30:00Z,30.3085,-88.1395,2.357,2.03,1111122 
DISL,ioos:station:DISL:CATA:1,2009-04-02T05:00:00Z,30.3085,-88.1395,2.333,1.96,1111122 
DISL,ioos:station:DISL:CATA:1,2009-04-02T05:30:00Z,30.3085,-88.1395,2.315,1.84,1111122 
DISL,ioos:station:DISL:CATA:1,2009-04-02T06:00:00Z,30.3085,-88.1395,2.282,1.79,1111122 
DISL,ioos:station:DISL:CATA:1,2009-04-02T06:30:00Z,30.3085,-88.1395,2.284,1.77,1111122 
DISL,ioos:station:DISL:CATA:1,2009-04-02T07:00:00Z,30.3085,-88.1395,2.314,1.71,1111122 
DISL,ioos:station:DISL:CATA:1,2009-04-02T07:30:00Z,30.3085,-88.1395,2.349,1.68,1111122 
DISL,ioos:station:DISL:CATA:1,2009-04-02T08:00:00Z,30.3085,-88.1395,2.343,1.65,1111122 
DISL,ioos:station:DISL:CATA:1,2009-04-02T08:30:00Z,30.3085,-88.1395,2.313,1.65,1111122 
DISL,ioos:station:DISL:CATA:1,2009-04-02T09:00:00Z,30.3085,-88.1395,2.311,1.7,1111122 
DISL,ioos:station:DISL:CATA:1,2009-04-02T09:30:00Z,30.3085,-88.1395,2.326,1.66,1111122 
DISL,ioos:station:DISL:CATA:1,2009-04-02T10:00:00Z,30.3085,-88.1395,2.289,1.62,1111122 
DISL,ioos:station:DISL:CATA:1,2009-04-02T10:30:00Z,30.3085,-88.1395,2.286,1.6,1111122 
DISL,ioos:station:DISL:CATA:1,2009-04-02T11:00:00Z,30.3085,-88.1395,2.287,1.57,1111122 
DISL,ioos:station:DISL:CATA:1,2009-04-02T11:30:00Z,30.3085,-88.1395,2.289,1.54,1111122 
DISL,ioos:station:DISL:CATA:1,2009-04-02T12:00:00Z,30.3085,-88.1395,2.296,1.5,1111122 
DISL,ioos:station:DISL:CATA:1,2009-04-02T12:30:00Z,30.3085,-88.1395,2.334,1.46,1111122 
DISL,ioos:station:DISL:CATA:1,2009-04-02T13:00:00Z,30.3085,-88.1395,2.475,1.45,1111122 
DISL,ioos:station:DISL:CATA:1,2009-04-02T13:30:00Z,30.3085,-88.1395,2.508,1.5,1111122 
DISL,ioos:station:DISL:CATA:1,2009-04-02T14:00:00Z,30.3085,-88.1395,2.513,1.46,1111122 
DISL,ioos:station:DISL:CATA:1,2009-04-02T14:30:00Z,30.3085,-88.1395,2.559,1.46,1111122 
DISL,ioos:station:DISL:CATA:1,2009-04-02T15:00:00Z,30.3085,-88.1395,2.593,1.5,1111122 
DISL,ioos:station:DISL:CATA:1,2009-04-02T15:30:00Z,30.3085,-88.1395,2.547,1.53,1111122 
DISL,ioos:station:DISL:CATA:1,2009-04-02T16:00:00Z,30.3085,-88.1395,2.583,1.55,1111122 
DISL,ioos:station:DISL:CATA:1,2009-04-02T16:30:00Z,30.3085,-88.1395,2.636,1.64,1111122 
DISL,ioos:station:DISL:CATA:1,2009-04-02T17:00:00Z,30.3085,-88.1395,2.725,1.6,1111122 
DISL,ioos:station:DISL:CATA:1,2009-04-02T17:30:00Z,30.3085,-88.1395,2.742,1.54,1111122 
DISL,ioos:station:DISL:CATA:1,2009-04-02T18:00:00Z,30.3085,-88.1395,2.764,1.55,1111122 
DISL,ioos:station:DISL:CATA:1,2009-04-02T18:30:00Z,30.3085,-88.1395,2.803,1.56,1111122 
DISL,ioos:station:DISL:CATA:1,2009-04-02T19:00:00Z,30.3085,-88.1395,2.829,1.53,1111122 
DISL,ioos:station:DISL:CATA:1,2009-04-02T19:30:00Z,30.3085,-88.1395,2.892,1.57,1111122 
DISL,ioos:station:DISL:CATA:1,2009-04-02T20:00:00Z,30.3085,-88.1395,2.86,1.5,1111122 
DISL,ioos:station:DISL:CATA:1,2009-04-02T20:30:00Z,30.3085,-88.1395,2.893,1.5,1111122 
DISL,ioos:station:DISL:CATA:1,2009-04-02T21:00:00Z,30.3085,-88.1395,2.937,1.58,1111122 
DISL,ioos:station:DISL:CATA:1,2009-04-02T21:30:00Z,30.3085,-88.1395,2.989,1.57,1111122 
DISL,ioos:station:DISL:CATA:1,2009-04-02T22:00:00Z,30.3085,-88.1395,2.934,1.69,1111122 
DISL,ioos:station:DISL:CATA:1,2009-04-02T22:30:00Z,30.3085,-88.1395,2.937,1.75,1111122 
DISL,ioos:station:DISL:CATA:1,2009-04-02T23:00:00Z,30.3085,-88.1395,2.942,1.74,1111122 
DISL,ioos:station:DISL:CATA:1,2009-04-02T23:30:00Z,30.3085,-88.1395,2.87,1.73,1111122 
DISL,ioos:station:DISL:CATA:1,2009-04-03T00:00:00Z,30.3085,-88.1395,2.799,1.49,1111122 
DISL,ioos:station:DISL:CATA:1,2009-04-03T00:30:00Z,30.3085,-88.1395,2.763,1.76,1111122 
DISL,ioos:station:DISL:CATA:1,2009-04-03T01:00:00Z,30.3085,-88.1395,2.717,1.85,1111122 
DISL,ioos:station:DISL:CATA:1,2009-04-03T01:30:00Z,30.3085,-88.1395,2.685,1.96,1111122 
DISL,ioos:station:DISL:CATA:1,2009-04-03T02:00:00Z,30.3085,-88.1395,2.683,1.92,1111122 
DISL,ioos:station:DISL:CATA:1,2009-04-03T02:30:00Z,30.3085,-88.1395,2.652,1.99,1111122 
DISL,ioos:station:DISL:CATA:1,2009-04-03T03:00:00Z,30.3085,-88.1395,2.659,2.01,1111122 
DISL,ioos:station:DISL:CATA:1,2009-04-03T03:30:00Z,30.3085,-88.1395,2.632,1.91,1111122 
DISL,ioos:station:DISL:CATA:1,2009-04-03T04:00:00Z,30.3085,-88.1395,2.592,1.88,1111122 
DISL,ioos:station:DISL:CATA:1,2009-04-03T04:30:00Z,30.3085,-88.1395,2.545,1.89,1111122 
DISL,ioos:station:DISL:CATA:1,2009-04-03T05:00:00Z,30.3085,-88.1395,2.513,3.07,1111122 
DISL,ioos:station:DISL:CATA:1,2009-04-03T05:30:00Z,30.3085,-88.1395,2.455,3.98,1111122 
DISL,ioos:station:DISL:CATA:1,2009-04-03T06:00:00Z,30.3085,-88.1395,2.423,3.81,1111122 
DISL,ioos:station:DISL:CATA:1,2009-04-03T06:30:00Z,30.3085,-88.1395,2.409,4.57,1111122 
DISL,ioos:station:DISL:CATA:1,2009-04-03T07:00:00Z,30.3085,-88.1395,2.382,4.94,1111122 
DISL,ioos:station:DISL:CATA:1,2009-04-03T07:30:00Z,30.3085,-88.1395,2.347,4.8,1111122 
DISL,ioos:station:DISL:CATA:1,2009-04-03T08:00:00Z,30.3085,-88.1395,2.335,4.37,1111122 
DISL,ioos:station:DISL:CATA:1,2009-04-03T08:30:00Z,30.3085,-88.1395,2.317,3.69,1111122 
DISL,ioos:station:DISL:CATA:1,2009-04-03T09:00:00Z,30.3085,-88.1395,2.292,3.38,1111122 
DISL,ioos:station:DISL:CATA:1,2009-04-03T09:30:00Z,30.3085,-88.1395,2.264,2.98,1111122 
DISL,ioos:station:DISL:CATA:1,2009-04-03T10:00:00Z,30.3085,-88.1395,2.248,3.01,1111122 
DISL,ioos:station:DISL:CATA:1,2009-04-03T10:30:00Z,30.3085,-88.1395,2.246,2.98,1111122 
DISL,ioos:station:DISL:CATA:1,2009-04-03T11:00:00Z,30.3085,-88.1395,2.248,2.73,1111122 
DISL,ioos:station:DISL:CATA:1,2009-04-03T11:30:00Z,30.3085,-88.1395,2.235,2.47,1111122 
DISL,ioos:station:DISL:CATA:1,2009-04-03T12:00:00Z,30.3085,-88.1395,2.244,2.25,1111122 
DISL,ioos:station:DISL:CATA:1,2009-04-03T12:30:00Z,30.3085,-88.1395,2.291,2.1,1111122 
DISL,ioos:station:DISL:CATA:1,2009-04-03T13:00:00Z,30.3085,-88.1395,2.318,2.05,1111122 
DISL,ioos:station:DISL:CATA:1,2009-04-03T13:30:00Z,30.3085,-88.1395,2.35,1.9,1111122 
DISL,ioos:station:DISL:CATA:1,2009-04-03T14:00:00Z,30.3085,-88.1395,2.381,1.8,1111122 
DISL,ioos:station:DISL:CATA:1,2009-04-03T14:30:00Z,30.3085,-88.1395,2.409,1.8,1111122 
DISL,ioos:station:DISL:CATA:1,2009-04-03T15:00:00Z,30.3085,-88.1395,2.434,1.84,1111122 
DISL,ioos:station:DISL:CATA:1,2009-04-03T15:30:00Z,30.3085,-88.1395,2.462,1.93,1111122 
DISL,ioos:station:DISL:CATA:1,2009-04-03T16:00:00Z,30.3085,-88.1395,2.496,2.05,1111122 
DISL,ioos:station:DISL:CATA:1,2009-04-03T16:30:00Z,30.3085,-88.1395,2.531,2.01,1111122 
DISL,ioos:station:DISL:CATA:1,2009-04-03T17:00:00Z,30.3085,-88.1395,2.567,1.99,1111122 
DISL,ioos:station:DISL:CATA:1,2009-04-03T17:30:00Z,30.3085,-88.1395,2.592,2.0,1111122 
DISL,ioos:station:DISL:CATA:1,2009-04-03T18:00:00Z,30.3085,-88.1395,2.622,2.05,1111122 
DISL,ioos:station:DISL:CATA:1,2009-04-03T18:30:00Z,30.3085,-88.1395,2.637,2.1,1111122 
DISL,ioos:station:DISL:CATA:1,2009-04-03T19:00:00Z,30.3085,-88.1395,2.672,2.3,1111122 
DISL,ioos:station:DISL:CATA:1,2009-04-03T19:30:00Z,30.3085,-88.1395,2.704,2.12,1111122 
DISL,ioos:station:DISL:CATA:1,2009-04-03T20:00:00Z,30.3085,-88.1395,2.722,2.09,1111122 
DISL,ioos:station:DISL:CATA:1,2009-04-03T20:30:00Z,30.3085,-88.1395,2.734,2.48,1111122 
DISL,ioos:station:DISL:CATA:1,2009-04-03T21:00:00Z,30.3085,-88.1395,2.745,2.57,1111122 
DISL,ioos:station:DISL:CATA:1,2009-04-03T21:30:00Z,30.3085,-88.1395,2.747,2.48,1111122 
DISL,ioos:station:DISL:CATA:1,2009-04-03T22:00:00Z,30.3085,-88.1395,2.759,2.45,1111122 
DISL,ioos:station:DISL:CATA:1,2009-04-03T22:30:00Z,30.3085,-88.1395,2.772,2.49,1111122 
DISL,ioos:station:DISL:CATA:1,2009-04-03T23:00:00Z,30.3085,-88.1395,2.772,2.56,1111122 
DISL,ioos:station:DISL:CATA:1,2009-04-03T23:30:00Z,30.3085,-88.1395,2.761,3.08,1111122 
DISL,ioos:station:DISL:CATA:1,2009-04-04T00:00:00Z,30.3085,-88.1395,2.756,3.92,1111122 
DISL,ioos:station:DISL:CATA:1,2009-04-04T00:30:00Z,30.3085,-88.1395,2.742,4.36,1111122 
DISL,ioos:station:DISL:CATA:1,2009-04-04T01:00:00Z,30.3085,-88.1395,2.74,4.78,1111122 
DISL,ioos:station:DISL:CATA:1,2009-04-04T01:30:00Z,30.3085,-88.1395,2.73,4.92,1111122 
DISL,ioos:station:DISL:CATA:1,2009-04-04T02:00:00Z,30.3085,-88.1395,2.695,4.78,1111122 
DISL,ioos:station:DISL:CATA:1,2009-04-04T02:30:00Z,30.3085,-88.1395,2.679,2.71,1111122 
DISL,ioos:station:DISL:CATA:1,2009-04-04T03:00:00Z,30.3085,-88.1395,2.645,2.64,1111122 
DISL,ioos:station:DISL:CATA:1,2009-04-04T03:30:00Z,30.3085,-88.1395,2.612,2.51,1111122 
DISL,ioos:station:DISL:CATA:1,2009-04-04T04:00:00Z,30.3085,-88.1395,2.571,2.46,1111122 
DISL,ioos:station:DISL:CATA:1,2009-04-04T04:30:00Z,30.3085,-88.1395,2.527,2.49,1111122 
DISL,ioos:station:DISL:CATA:1,2009-04-04T05:00:00Z,30.3085,-88.1395,2.487,2.48,1111122 
DISL,ioos:station:DISL:CATA:1,2009-04-04T05:30:00Z,30.3085,-88.1395,2.444,2.44,1111122 
DISL,ioos:station:DISL:CATA:1,2009-04-04T06:00:00Z,30.3085,-88.1395,2.402,2.47,1111122 
DISL,ioos:station:DISL:CATA:1,2009-04-04T06:30:00Z,30.3085,-88.1395,2.372,2.31,1111122 
DISL,ioos:station:DISL:CATA:1,2009-04-04T07:00:00Z,30.3085,-88.1395,2.334,2.03,1111122 
DISL,ioos:station:DISL:CATA:1,2009-04-04T07:30:00Z,30.3085,-88.1395,2.305,1.88,1111122 
DISL,ioos:station:DISL:CATA:1,2009-04-04T08:00:00Z,30.3085,-88.1395,2.29,1.84,1111122 
DISL,ioos:station:DISL:CATA:1,2009-04-04T08:30:00Z,30.3085,-88.1395,2.28,1.61,1111122 
DISL,ioos:station:DISL:CATA:1,2009-04-04T09:00:00Z,30.3085,-88.1395,2.268,1.47,1111122 
DISL,ioos:station:DISL:CATA:1,2009-04-04T09:30:00Z,30.3085,-88.1395,2.246,1.5,1111122 
DISL,ioos:station:DISL:CATA:1,2009-04-04T10:00:00Z,30.3085,-88.1395,2.241,1.43,1111122 
DISL,ioos:station:DISL:CATA:1,2009-04-04T10:30:00Z,30.3085,-88.1395,2.236,1.48,1111122 
DISL,ioos:station:DISL:CATA:1,2009-04-04T11:00:00Z,30.3085,-88.1395,2.237,1.53,1111122 
DISL,ioos:station:DISL:CATA:1,2009-04-04T11:30:00Z,30.3085,-88.1395,2.249,1.62,1111122 
DISL,ioos:station:DISL:CATA:1,2009-04-04T12:00:00Z,30.3085,-88.1395,2.264,1.64,1111122 
DISL,ioos:station:DISL:CATA:1,2009-04-04T12:30:00Z,30.3085,-88.1395,2.292,1.62,1111122 
DISL,ioos:station:DISL:CATA:1,2009-04-04T13:00:00Z,30.3085,-88.1395,2.32,1.61,1111122 
DISL,ioos:station:DISL:CATA:1,2009-04-04T13:30:00Z,30.3085,-88.1395,2.35,1.64,1111122 
DISL,ioos:station:DISL:CATA:1,2009-04-04T14:00:00Z,30.3085,-88.1395,2.388,1.66,1111122 
DISL,ioos:station:DISL:CATA:1,2009-04-04T14:30:00Z,30.3085,-88.1395,2.425,1.69,1111122 
DISL,ioos:station:DISL:CATA:1,2009-04-04T15:00:00Z,30.3085,-88.1395,2.442,1.74,1111122 
DISL,ioos:station:DISL:CATA:1,2009-04-04T15:30:00Z,30.3085,-88.1395,2.472,1.77,1111122 
DISL,ioos:station:DISL:CATA:1,2009-04-04T16:00:00Z,30.3085,-88.1395,2.505,1.81,1111122 
DISL,ioos:station:DISL:CATA:1,2009-04-04T16:30:00Z,30.3085,-88.1395,2.525,1.83,1111122 
DISL,ioos:station:DISL:CATA:1,2009-04-04T17:00:00Z,30.3085,-88.1395,2.552,1.83,1111122 
DISL,ioos:station:DISL:CATA:1,2009-04-04T17:30:00Z,30.3085,-88.1395,2.569,1.86,1111122 
DISL,ioos:station:DISL:CATA:1,2009-04-04T18:00:00Z,30.3085,-88.1395,2.591,1.86,1111122 
DISL,ioos:station:DISL:CATA:1,2009-04-04T18:30:00Z,30.3085,-88.1395,2.6,1.91,1111122 
DISL,ioos:station:DISL:CATA:1,2009-04-04T19:00:00Z,30.3085,-88.1395,2.625,1.89,1111122 
DISL,ioos:station:DISL:CATA:1,2009-04-04T19:30:00Z,30.3085,-88.1395,2.631,1.89,1111122 
DISL,ioos:station:DISL:CATA:1,2009-04-04T20:00:00Z,30.3085,-88.1395,2.653,1.9,1111122 
DISL,ioos:station:DISL:CATA:1,2009-04-04T20:30:00Z,30.3085,-88.1395,2.669,1.9,1111122 
DISL,ioos:station:DISL:CATA:1,2009-04-04T21:00:00Z,30.3085,-88.1395,2.693,1.9,1111122 
DISL,ioos:station:DISL:CATA:1,2009-04-04T21:30:00Z,30.3085,-88.1395,2.71,1.9,1111122 
DISL,ioos:station:DISL:CATA:1,2009-04-04T22:00:00Z,30.3085,-88.1395,2.738,1.89,1111122 
DISL,ioos:station:DISL:CATA:1,2009-04-04T22:30:00Z,30.3085,-88.1395,2.745,1.89,1111122 
DISL,ioos:station:DISL:CATA:1,2009-04-04T23:00:00Z,30.3085,-88.1395,2.746,1.92,1111122 
DISL,ioos:station:DISL:CATA:1,2009-04-04T23:30:00Z,30.3085,-88.1395,2.744,1.93,1111122 
DISL,ioos:station:DISL:CATA:1,2009-04-05T00:00:00Z,30.3085,-88.1395,2.752,1.94,1111122 
DISL,ioos:station:DISL:CATA:1,2009-04-05T00:30:00Z,30.3085,-88.1395,2.749,1.91,1111122 
DISL,ioos:station:DISL:CATA:1,2009-04-05T01:00:00Z,30.3085,-88.1395,2.731,1.93,1111122 
DISL,ioos:station:DISL:CATA:1,2009-04-05T01:30:00Z,30.3085,-88.1395,2.719,1.94,1111122 
DISL,ioos:station:DISL:CATA:1,2009-04-05T02:00:00Z,30.3085,-88.1395,2.705,2.0,1111122 
DISL,ioos:station:DISL:CATA:1,2009-04-05T02:30:00Z,30.3085,-88.1395,2.689,1.92,1111122 
DISL,ioos:station:DISL:CATA:1,2009-04-05T03:00:00Z,30.3085,-88.1395,2.669,1.94,1111122 
DISL,ioos:station:DISL:CATA:1,2009-04-05T03:30:00Z,30.3085,-88.1395,2.656,1.96,1111122 
DISL,ioos:station:DISL:CATA:1,2009-04-05T04:00:00Z,30.3085,-88.1395,2.608,1.98,1111122 
DISL,ioos:station:DISL:CATA:1,2009-04-05T04:30:00Z,30.3085,-88.1395,2.578,2.01,1111122 
DISL,ioos:station:DISL:CATA:1,2009-04-05T05:00:00Z,30.3085,-88.1395,2.546,2.0,1111122 
DISL,ioos:station:DISL:CATA:1,2009-04-05T05:30:00Z,30.3085,-88.1395,2.514,1.91,1111122 
DISL,ioos:station:DISL:CATA:1,2009-04-05T06:00:00Z,30.3085,-88.1395,2.48,1.8,1111122 
DISL,ioos:station:DISL:CATA:1,2009-04-05T06:30:00Z,30.3085,-88.1395,2.445,1.97,1111122 
DISL,ioos:station:DISL:CATA:1,2009-04-05T07:00:00Z,30.3085,-88.1395,2.421,1.98,1111122 
DISL,ioos:station:DISL:CATA:1,2009-04-05T07:30:00Z,30.3085,-88.1395,2.408,1.96,1111122 
DISL,ioos:station:DISL:CATA:1,2009-04-05T08:00:00Z,30.3085,-88.1395,2.383,1.99,1111122 
DISL,ioos:station:DISL:CATA:1,2009-04-05T08:30:00Z,30.3085,-88.1395,2.372,2.0,1111122 
DISL,ioos:station:DISL:CATA:1,2009-04-05T09:00:00Z,30.3085,-88.1395,2.374,2.01,1111122 
DISL,ioos:station:DISL:CATA:1,2009-04-05T09:30:00Z,30.3085,-88.1395,2.365,1.99,1111122 
DISL,ioos:station:DISL:CATA:1,2009-04-05T10:00:00Z,30.3085,-88.1395,2.376,1.93,1111122 
DISL,ioos:station:DISL:CATA:1,2009-04-05T10:30:00Z,30.3085,-88.1395,2.383,1.87,1111122 
DISL,ioos:station:DISL:CATA:1,2009-04-05T11:00:00Z,30.3085,-88.1395,2.377,1.83,1111122 
DISL,ioos:station:DISL:CATA:1,2009-04-05T11:30:00Z,30.3085,-88.1395,2.377,1.85,1111122 
DISL,ioos:station:DISL:CATA:1,2009-04-05T12:00:00Z,30.3085,-88.1395,2.378,1.87,1111122 
DISL,ioos:station:DISL:CATA:1,2009-04-05T12:30:00Z,30.3085,-88.1395,2.387,1.81,1111122 
DISL,ioos:station:DISL:CATA:1,2009-04-05T13:00:00Z,30.3085,-88.1395,2.404,1.86,1111122 
DISL,ioos:station:DISL:CATA:1,2009-04-05T13:30:00Z,30.3085,-88.1395,2.423,1.94,1111122 
DISL,ioos:station:DISL:CATA:1,2009-04-05T14:00:00Z,30.3085,-88.1395,2.439,2.01,1111122 
DISL,ioos:station:DISL:CATA:1,2009-04-05T14:30:00Z,30.3085,-88.1395,2.463,2.02,1111122 
DISL,ioos:station:DISL:CATA:1,2009-04-05T15:00:00Z,30.3085,-88.1395,2.484,1.95,1111122 
DISL,ioos:station:DISL:CATA:1,2009-04-05T15:30:00Z,30.3085,-88.1395,2.501,1.89,1111122 
DISL,ioos:station:DISL:CATA:1,2009-04-05T16:00:00Z,30.3085,-88.1395,2.525,1.84,1111122 
DISL,ioos:station:DISL:CATA:1,2009-04-05T16:30:00Z,30.3085,-88.1395,2.538,1.79,1111122 
DISL,ioos:station:DISL:CATA:1,2009-04-05T17:00:00Z,30.3085,-88.1395,2.568,1.7,1111122 
DISL,ioos:station:DISL:CATA:1,2009-04-05T17:30:00Z,30.3085,-88.1395,2.59,1.7,1111122 
DISL,ioos:station:DISL:CATA:1,2009-04-05T18:00:00Z,30.3085,-88.1395,2.613,1.73,1111122 
DISL,ioos:station:DISL:CATA:1,2009-04-05T18:30:00Z,30.3085,-88.1395,2.617,1.8,1111122 
DISL,ioos:station:DISL:CATA:1,2009-04-05T19:00:00Z,30.3085,-88.1395,2.621,1.85,1111122 
DISL,ioos:station:DISL:CATA:1,2009-04-05T19:30:00Z,30.3085,-88.1395,2.622,1.88,1111122 
DISL,ioos:station:DISL:CATA:1,2009-04-05T20:00:00Z,30.3085,-88.1395,2.62,1.88,1111122 
DISL,ioos:station:DISL:CATA:1,2009-04-05T20:30:00Z,30.3085,-88.1395,2.643,1.91,1111122 
DISL,ioos:station:DISL:CATA:1,2009-04-05T21:00:00Z,30.3085,-88.1395,2.638,1.93,1111122 
DISL,ioos:station:DISL:CATA:1,2009-04-05T21:30:00Z,30.3085,-88.1395,2.643,1.92,1111122 
DISL,ioos:station:DISL:CATA:1,2009-04-05T22:00:00Z,30.3085,-88.1395,2.651,1.86,1111122 
DISL,ioos:station:DISL:CATA:1,2009-04-05T22:30:00Z,30.3085,-88.1395,2.66,1.86,1111122 
DISL,ioos:station:DISL:CATA:1,2009-04-05T23:00:00Z,30.3085,-88.1395,2.669,1.72,1111122 
DISL,ioos:station:DISL:CATA:1,2009-04-05T23:30:00Z,30.3085,-88.1395,2.691,1.57,1111122 
DISL,ioos:station:DISL:CATA:1,2009-04-06T00:00:00Z,30.3085,-88.1395,2.702,1.72,1111122 
DISL,ioos:station:DISL:CATA:1,2009-04-06T00:30:00Z,30.3085,-88.1395,2.691,1.76,1111122 
DISL,ioos:station:DISL:CATA:1,2009-04-06T01:00:00Z,30.3085,-88.1395,2.687,1.87,1111122 
DISL,ioos:station:DISL:CATA:1,2009-04-06T01:30:00Z,30.3085,-88.1395,2.691,1.92,1111122 
DISL,ioos:station:DISL:CATA:1,2009-04-06T02:00:00Z,30.3085,-88.1395,2.695,1.97,1111122 
DISL,ioos:station:DISL:CATA:1,2009-04-06T02:30:00Z,30.3085,-88.1395,2.7,1.98,1111122 
DISL,ioos:station:DISL:CATA:1,2009-04-06T03:00:00Z,30.3085,-88.1395,2.692,1.99,1111122 
DISL,ioos:station:DISL:CATA:1,2009-04-06T03:30:00Z,30.3085,-88.1395,2.671,1.93,1111122 
DISL,ioos:station:DISL:CATA:1,2009-04-06T04:00:00Z,30.3085,-88.1395,2.647,1.8,1111122 
DISL,ioos:station:DISL:CATA:1,2009-04-06T04:30:00Z,30.3085,-88.1395,2.628,1.71,1111122 
DISL,ioos:station:DISL:CATA:1,2009-04-06T05:00:00Z,30.3085,-88.1395,2.602,1.75,1111122 
DISL,ioos:station:DISL:CATA:1,2009-04-06T05:30:00Z,30.3085,-88.1395,2.572,1.67,1111122 
DISL,ioos:station:DISL:CATA:1,2009-04-06T06:00:00Z,30.3085,-88.1395,2.558,1.67,1111122 
DISL,ioos:station:DISL:CATA:1,2009-04-06T06:30:00Z,30.3085,-88.1395,2.564,1.65,1111122 
DISL,ioos:station:DISL:CATA:1,2009-04-06T07:00:00Z,30.3085,-88.1395,2.545,1.59,1111122 
DISL,ioos:station:DISL:CATA:1,2009-04-06T07:30:00Z,30.3085,-88.1395,2.514,1.63,1111122 
DISL,ioos:station:DISL:CATA:1,2009-04-06T08:00:00Z,30.3085,-88.1395,2.497,1.66,1111122 
DISL,ioos:station:DISL:CATA:1,2009-04-06T08:30:00Z,30.3085,-88.1395,2.451,1.77,1111122 
DISL,ioos:station:DISL:CATA:1,2009-04-06T09:00:00Z,30.3085,-88.1395,2.417,1.83,1111122 
DISL,ioos:station:DISL:CATA:1,2009-04-06T09:30:00Z,30.3085,-88.1395,2.363,1.85,1111122 
DISL,ioos:station:DISL:CATA:1,2009-04-06T10:00:00Z,30.3085,-88.1395,2.322,1.85,1111122 
DISL,ioos:station:DISL:CATA:1,2009-04-06T10:30:00Z,30.3085,-88.1395,2.306,1.67,1111122 
DISL,ioos:station:DISL:CATA:1,2009-04-06T11:00:00Z,30.3085,-88.1395,2.272,1.57,1111122 
DISL,ioos:station:DISL:CATA:1,2009-04-06T11:30:00Z,30.3085,-88.1395,2.233,1.53,1111122 
DISL,ioos:station:DISL:CATA:1,2009-04-06T12:00:00Z,30.3085,-88.1395,2.276,1.23,1111122 
DISL,ioos:station:DISL:CATA:1,2009-04-06T12:30:00Z,30.3085,-88.1395,2.285,1.21,1111122 
DISL,ioos:station:DISL:CATA:1,2009-04-06T13:00:00Z,30.3085,-88.1395,2.289,1.2,1111122 
DISL,ioos:station:DISL:CATA:1,2009-04-06T13:30:00Z,30.3085,-88.1395,2.274,1.18,1111122 
DISL,ioos:station:DISL:CATA:1,2009-04-06T14:00:00Z,30.3085,-88.1395,2.285,1.17,1111122 
DISL,ioos:station:DISL:CATA:1,2009-04-06T14:30:00Z,30.3085,-88.1395,2.3,1.16,1111122 
DISL,ioos:station:DISL:CATA:1,2009-04-06T15:00:00Z,30.3085,-88.1395,2.306,1.16,1111122 
DISL,ioos:station:DISL:CATA:1,2009-04-06T15:30:00Z,30.3085,-88.1395,2.308,1.16,1111122 